Location: Asheville, NC
(35.6000°N, 82.5500°W)
Time: 22:54:50

KKS-1 - Pass Details

Date: 12 March 2018
Orbit: 638 x 650 km, 98.4° (Epoch: 18 March)

Event Time Altitude Azimuth Distance (km) Brightness Sun altitude
Rises 05:34:41 0° 139° (SE) 2,948 ? -27.1°
Reaches altitude 10° 05:37:08 10° 127° (SE) 2,044 ? -26.6°
Maximum altitude 05:40:52 27° 70° (ENE) 1,239 ? -25.9°
Drops below altitude 10° 05:44:39 10° 12° (NNE) 2,056 ? -25.1°
Sets 05:47:07 0° 1° (N) 2,971 ? -24.6°
